This is the latest recevied weather packets stored in our database for station/object GBTWP-2. If no packets are shown the sender has not sent any weather packets the latest 10 day(s).
| Time | Temp. | Humidity | Pressure | Rain* | Wind** | Luminosity | Snow |
|---|---|---|---|---|---|---|---|
| 1787491319 | 16.67° C | 84% | 1016.2 hPa | 0 mm | - | 126 W/m² | - |
| 1787491020 | 16.67° C | 85% | 1016.2 hPa | 0 mm | - | 149 W/m² | - |
| 1787490719 | 16.11° C | 86% | 1016.4 hPa | 0 mm | - | 135 W/m² | - |
| 1787490420 | 16.11° C | 87% | 1016.3 hPa | 0 mm | - | 121 W/m² | - |
| 1787490120 | 15.56° C | 87% | 1016.3 hPa | 0 mm | - | 110 W/m² | - |
| 1787489820 | 15.56° C | 88% | 1016.4 hPa | 0 mm | - | 100 W/m² | - |
| 1787489519 | 15.56° C | 87% | 1016.4 hPa | 0 mm | - | 90 W/m² | - |
| 1787489225 | 15.56° C | 89% | 1016.3 hPa | 0 mm | - | 92 W/m² | - |
| 1787488919 | 15° C | 89% | 1016.3 hPa | 0 mm | - | 74 W/m² | - |
| 1787488620 | 15° C | 89% | 1016.1 hPa | 0 mm | - | 67 W/m² | - |
| 1787488319 | 15° C | 90% | 1015.9 hPa | 0 mm | - | 60 W/m² | - |
| 1787488020 | 14.44° C | 90% | 1016.1 hPa | 0 mm | - | 52 W/m² | - |
| 1787487720 | 14.44° C | 90% | 1016.1 hPa | 0 mm | - | 47 W/m² | - |
| 1787487419 | 14.44° C | 90% | 1016.1 hPa | 0 mm | - | 42 W/m² | - |
| 1787487119 | 14.44° C | 90% | 1016.1 hPa | 0 mm | - | 41 W/m² | - |
| 1787486818 | 14.44° C | 91% | 1016 hPa | 0 mm | - | 42 W/m² | - |
| 1787486520 | 14.44° C | 91% | 1015.8 hPa | 0 mm | - | 41 W/m² | - |
| 1787486220 | 14.44° C | 91% | 1016.1 hPa | 0 mm | - | 40 W/m² | - |
| 1787485919 | 14.44° C | 91% | 1016.1 hPa | 0 mm | - | 38 W/m² | - |
| 1787485620 | 14.44° C | 92% | 1016 hPa | 0 mm | - | 35 W/m² | - |
| 1787485320 | 13.89° C | 92% | 1015.9 hPa | 0 mm | - | 32 W/m² | - |
| 1787485020 | 13.89° C | 93% | 1015.8 hPa | 0 mm | - | 26 W/m² | - |
| 1787484719 | 13.89° C | 93% | 1015.9 hPa | 0 mm | - | 22 W/m² | - |
| 1787484421 | 13.89° C | 94% | 1015.9 hPa | 0 mm | - | 18 W/m² | - |
| 1787484119 | 13.89° C | 94% | 1015.8 hPa | 0 mm | - | 15 W/m² | - |
* Rain latest hour (hover to see other rain measurements)
** Current wind speed in m/s (hover to see current wind gust speed)